Location: Allentsteig
(48.6833°N, 15.3167°E)
Time: 10:27:03
(UTC+00:00)

Lacrosse 4 Rocket - Visible Passes

Search period start: 18 January 2021 00:00
Search period end: 28 January 2021 00:00
Orbit: 538 x 620 km, 68.0° (Epoch: 17 January)

Date Brightness Start Highest point End Pass type
(mag) Time Alt. Az. Time Alt. Az. Time Alt. Az.
18 Jan 4.9 05:01:08 10° SE 05:03:16 14° ESE 05:05:24 10° ENE visible
19 Jan 4.3 05:04:27 10° SSE 05:07:34 20° ESE 05:10:46 10° ENE visible
20 Jan 3.6 05:08:15 10° S 05:11:56 30° ESE 05:15:45 10° NE visible
21 Jan 2.7 05:12:20 10° S 05:16:22 45° ESE 05:20:31 10° NE visible
22 Jan 1.8 05:16:38 10° SSW 05:20:50 69° ESE 05:25:11 10° NE visible
23 Jan 4.6 03:45:21 10° SE 03:47:22 13° ESE 03:49:23 10° ENE visible
23 Jan 1.4 05:21:07 10° SW 05:25:22 80° WNW 05:29:46 10° NNE visible
24 Jan 4.0 03:48:36 10° SSE 03:51:40 20° ESE 03:54:49 10° ENE visible
24 Jan 1.5 05:25:47 10° SW 05:29:57 55° NW 05:34:17 10° NNE visible
25 Jan 3.3 03:52:56 13° SSE 03:56:02 29° ESE 03:59:48 10° NE visible
25 Jan 2.0 05:30:35 10° WSW 05:34:36 39° NW 05:38:44 10° NNE visible
26 Jan 2.5 03:58:55 31° SSE 04:00:27 43° ESE 04:04:36 10° NE visible
26 Jan 2.4 05:35:33 10° WSW 05:39:18 28° NW 05:43:08 10° NNE visible
27 Jan 1.7 04:04:26 60° SSE 04:04:54 66° ESE 04:09:16 10° NE visible
27 Jan 2.8 05:40:48 11° W 05:44:02 22° NW 05:47:29 10° NNE visible
